User: anonymous   Login
Location: Brno
(49.2000°N, 16.6330°E)
Time: 04:33:23
(UTC+01:00)
Language:

NOSS 3-4 (A) - Orbit

View from above orbital plane
View from above orbital plane
View from above satellite
View from above satellite

Ground track
Ground track

The orbit data is extracted from the following two-line orbital elements,

1 31701U 07027A   14330.99962535 0.00000000  00000-0  00000-0 0    00
2 31701  63.4030 301.5530 0114000  34.7135 325.2865 13.40660371    08
Epoch (UTC): 26 November 2014 23:59:27
Eccentricity: 0.0114000
inclination: 63.4030°
perigee height: 1021 km
apogee height: 1192 km
right ascension of ascending node: 301.5530°
argument of perigee: 34.7135°
revolutions per day: 13.40660371
mean anomaly at epoch: 325.2865°
orbit number at epoch: 0

The dashed part of the orbit path shows where the satellite is in the earth's shadow,  

DLR